Content
SEND FEEDBACK

Daily
Averages
Monthly
Summary
Turkmenistan

KURTILE, TURKMENISTAN


Home > Asia > Turkmenistan
Elevation: 748 feet     Latitude: 37 58N     Longitude: 058 19E

WEATHER
 
SELECT A DAY
Number of Records: 182,518;   Date Range: 3/15/97 - 11/25/14
 
SHARE

PRINT THIS DATA

[ ← Previous Day ]
WEATHER ALMANAC - SEPTEMBER 28, 2013
[ Next Day → ]
[ °C ]   °F
Weather ElementAverageHighLow
Temperature76.5 °F93.2 °F (4:00 pm)60.8 °F (6:00 am)
Dewpoint48.1 °F53 °F (2:00 am)41 °F (4:00 pm)
Humidity38.7 %72 % (6:00 am)16 % (4:00 pm)
Barometer29.82 in29.92 in (1:00 am)29.76 in (5:00 pm)
Wind Speed3.5 mph8.9 mph (11:00 pm)
Weather ElementAverage
Visibility6.1 mi
Wind DirectionESE (107.9 °)

Weather ElementTotal
Precipitation---
Cooling Degree Days12 (Base 65)
Growing Degree Days27 (Base 50)
Averaged from 31 records on September 28, 2013
WEATHER CONDITIONS BREAKOUT
WIND DIRECTION BREAKOUT
WEATHER BY HOUR - SEPTEMBER 28, 2013
[ °C ]   °F
Local TimeTemperatureDewpointHumidityBarometerVisibilityWind DirectionWind SpeedGust SpeedPrecipitationEventsConditions
1:00 AM68.0 °F48.2 °F49 %29.92 in6.2 miCalmClear
2:00 AM65.0 °F53.0 °F55 %29.90 in6.0 miNorth (350°)4.5 mph
2:00 AM66.2 °F51.8 °F60 %29.89 in6.2 miNorth (350°)4.5 mphClear
3:00 AM64.4 °F50.0 °F59 %29.86 in6.2 miWest (260°)4.5 mphClear
4:00 AM62.6 °F50.0 °F63 %29.86 in6.2 miENE (60°)4.5 mphClear
5:00 AM61.0 °F52.0 °F64 %29.86 in6.0 miSSE (150°)4.5 mph
5:00 AM62.6 °F50.0 °F63 %29.86 in6.2 miSSE (150°)4.5 mphClear
6:00 AM60.8 °F51.8 °F72 %29.83 in6.2 miSouth (180°)4.5 mphClear
7:00 AM60.8 °F50.0 °F68 %29.83 in6.2 miVariable2.2 mphClear
8:00 AM62.0 °F51.0 °F58 %29.86 in6.0 miCalm
8:00 AM64.4 °F51.8 °F64 %29.83 in6.2 miVariable2.2 mphClear
9:00 AM71.6 °F51.8 °F50 %29.86 in6.2 miVariable2.2 mphClear
10:00 AM75.2 °F48.2 °F38 %29.86 in6.2 miVariable2.2 mphClear
11:00 AM78.0 °F53.0 °F31 %29.85 in6.0 miEast (90°)4.5 mph
11:00 AM80.6 °F48.2 °F32 %29.86 in6.2 miENE (70°)4.5 mphClear
12:00 PM86.0 °F48.2 °F27 %29.83 in6.2 miEast (90°)4.5 mphClear
1:00 PM89.6 °F48.2 °F24 %29.83 in6.2 miENE (70°)4.5 mphClear
2:00 PM90.0 °F52.0 °F18 %29.78 in6.0 miNorth (10°)4.5 mph
2:00 PM91.4 °F44.6 °F20 %29.80 in6.2 miNNE (20°)4.5 mphClear
3:00 PM91.4 °F42.8 °F18 %29.77 in6.2 miVariable2.2 mphClear
4:00 PM93.2 °F41.0 °F16 %29.77 in6.2 miCalmClear
5:00 PM92.0 °F52.0 °F16 %29.76 in6.0 miWest (270°)2.2 mph
5:00 PM93.2 °F41.0 °F16 %29.77 in6.2 miWest (270°)2.2 mphClear
6:00 PM91.4 °F42.8 °F18 %29.77 in6.2 miWSW (250°)4.5 mphClear
7:00 PM86.0 °F46.4 °F25 %29.77 in6.2 miCalmClear
8:00 PM83.0 °F51.0 °F23 %29.78 in6.0 miCalm
8:00 PM84.2 °F42.8 °F23 %29.80 in6.2 miVariable2.2 mphClear
9:00 PM78.8 °F42.8 °F28 %29.80 in6.2 miESE (120°)4.5 mphClear
10:00 PM77.0 °F44.6 °F32 %29.80 in6.2 miEast (90°)6.7 mphClear
11:00 PM71.0 °F47.0 °F32 %29.78 in6.0 miSE (140°)8.9 mph
11:00 PM71.6 °F44.6 °F38 %29.77 in6.2 miSE (140°)6.7 mphClear
Hourly data recorded from UTAA, located miles away from Kurtile, Turkmenistan







STORIES FROM OUR PARTNERS